Temp
6 6 6 7 7 9 8 7 6 5 6 6 6 7 9 13 14 15 14 15 15 14 15 13 14 13 12 15 15 15 15 14 13 16 16 16 15 16 17 13 15 14 13 12
6 6 7 7 7 8 8 5 5 6 6 8 8 9 13 13 14 14 15 14 15 16 15 12 14 14 15 15 15 13 14 14 12 14 15 16 17 17 16 18 15 14 13 11
6 6 6 8 8 9 9 7 6 6 7 8 8 13 13 13 14 14 15 15 16 16 16 16 15 14 15 15 15 12 13 14 13 11 13 15 15 16 16 15 11 14 13 12
6 6 6 7 8 9 9 9 8 8 8 11 13 14 14 14 14 15 16 16 16 16 16 15 15 15 15 16 15 14 15 12 11 15 16 15 15 15 15 14 15 13 13 14
6 6 6 8 8 8 8 9 9 9 11 11 13 13 14 14 14 14 15 15 15 15 14 15 15 16 15 14 16 16 16 12 13 12 15 15 13 14 15 15 15 16 15 14
6 7 7 8 8 9 10 9 10 12 11 12 14 13 14 13 14 14 14 14 14 12 13 15 15 15 15 15 14 15 14 12 10 12 15 15 13 13 13 15 14 14 14 15
6 8 8 8 9 9 10 9 11 12 12 12 13 14 13 13 13 13 13 13 14 12 13 13 17 16 15 14 14 14 15 13 10 10 12 11 14 13 13 13 15 14 13 14
7 8 8 9 9 9 9 8 9 12 11 13 13 14 13 13 12 12 11 12 12 12 12 14 14 14 15 15 14 14 14 14 11 10 12 14 13 13 13 12 13 14 13 13
6 7 8 8 8 9 8 8 7 10 11 8 8 13 15 13 13 12 12 13 13 12 13 14 14 12 14 14 15 15 15 15 13 13 13 15 14 13 13 13 12 13 13 12
7 7 7 8 8 8 8 8 7 8 8 7 7 10 10 12 13 12 13 13 13 13 12 12 12 11 13 13 13 12 12 13 12 13 12 14 13 12 13 13 11 13 13 12
6 7 7 8 8 8 8 7 8 8 7 6 7 7 8 10 11 12 12 12 12 12 13 12 12 12 12 12 14 13 12 11 12 12 13 11 12 12 13 11 11 12 12 11
6 7 8 8 7 8 8 8 8 8 6 5 6 5 5 5 5 6 11 11 12 10 11 12 12 11 11 12 12 12 11 12 11 12 12 12 12 11 11 10 11 11 11 10
7 7 8 8 7 8 9 8 8 9 7 6 6 7 6 5 5 5 8 10 9 11 8 10 11 12 11 11 12 13 12 11 10 11 13 12 11 12 11 10 10 10 9 8
8 7 8 7 8 8 8 8 8 8 10 9 7 6 7 6 6 6 6 7 8 8 9 10 10 11 10 10 10 10 10 10 11 11 12 11 11 12 10 8 8 8 7 7
7 9 8 8 7 8 8 8 7 7 7 8 7 7 6 6 7 7 7 7 9 9 9 8 9 8 8 8 7 7 9 10 9 10 11 10 9 8 9 8 7 8 7 6
6 6 9 8 8 8 9 7 7 8 7 6 7 6 8 7 7 8 8 7 7 8 8 8 7 6 6 7 8 12 10 11 9 10 9 7 7 7 7 8 6 6 6 5
5 6 7 8 8 9 8 6 6 7 7 7 6 6 6 6 6 7 7 8 6 6 7 7 7 6 5 6 7 11 11 9 7 7 7 7 7 6 6 5 5 5 5 4
6 6 7 7 8 8 8 8 7 8 7 6 5 5 5 6 7 7 6 7 6 6 6 5 6 5 4 5 8 9 9 8 7 6 7 6 5 5 4 5 4 4 4 4
6 6 6 7 7 7 7 8 7 7 6 4 4 5 5 5 5 6 6 6 5 5 5 6 5 5 5 7 8 8 7 6 6 5 5 5 5 4 3 4 3 4 4 3
6 6 6 5 6 7 7 6 6 4 4 3 4 4 4 4 5 6 6 6 5 4 5 4 4 5 8 8 8 8 6 6 4 3 3 4 3 3 3 3 3 3 2 2
6 6 5 5 6 6 5 4 4 5 5 4 3 3 3 4 4 6 5 4 3 4 4 4 5 5 7 7 6 6 6 5 4 5 5 3 3 2 3 2 3 2 2 1
6 6 5 5 4 3 4 3 3 3 5 3 3 3 4 3 3 5 4 4 2 3 3 3 4 5 6 5 5 5 4 4 4 4 3 3 3 3 2 2 2 1 1 1
6 5 2 3 3 3 3 3 3 3 3 2 2 2 3 2 3 4 4 3 3 3 1 4 5 5 4 4 3 3 3 3 3 3 3 3 2 2 2 1 1 0 0 0
3 3 3 3 2 3 4 4 4 2 2 2 3 2 3 3 3 4 3 5 4 1 1 4 3 4 3 3 3 2 2 1 -0 -0 1 1 0 0 0 0 -0 -1 -1 -1
2 2 3 3 3 1 0 -1 0 -0 2 2 2 1 3 2 3 3 2 2 -1 2 4 4 2 3 3 2 2 2 1 0 0 0 -1 -1 -0 -1 -1 -1 -1 -2 -2 -3
1 1 1 2 1 1 -1 -1 0 0 2 0 1 2 1 2 2 2 1 2 3 5 3 1 1 2 2 1 2 2 2 1 1 1 1 0 -1 -1 -1 -2 -2 -3 -3 -4
3 2 2 2 1 2 1 1 2 2 1 2 1 1 3 0 1 1 2 3 4 3 1 -1 2 2 1 1 1 1 2 2 1 1 1 -0 -1 -2 -3 -4 -3 -3 -4 -4
Height
760 755 751 746 742 738 739 742 752 770 770 772 773 766 757 742 740 736 737 733 734 741 738 749 749 752 755 746 746 742 740 741 746 736 729 728 730 722 717 737 730 727 741 765
764 758 754 750 748 746 747 755 766 771 771 767 769 759 744 744 740 741 738 740 739 737 742 756 748 747 746 744 744 747 742 744 752 743 740 729 728 723 719 714 724 737 746 771
766 761 757 753 750 749 749 756 769 775 772 767 766 747 745 749 745 743 740 742 738 737 739 739 746 750 747 745 744 747 747 747 753 765 755 746 744 734 727 730 752 747 749 761
766 763 759 757 754 751 752 756 766 769 769 756 749 744 743 745 746 743 741 742 740 739 743 746 749 746 747 742 743 743 741 759 762 746 743 743 743 740 738 740 735 750 755 754
767 762 761 759 757 755 755 757 762 764 758 758 749 749 748 748 750 749 747 747 744 743 749 747 751 744 749 751 740 741 741 762 756 759 744 747 754 750 745 744 742 741 747 754
767 761 761 761 758 758 757 759 757 755 758 752 750 753 752 755 752 755 755 752 756 761 760 753 750 748 749 749 749 747 749 760 771 766 749 749 760 760 756 750 751 753 755 753
768 762 763 764 762 760 760 759 758 754 759 758 755 754 757 758 757 760 761 756 757 765 760 755 747 747 748 749 750 748 749 757 771 776 759 774 760 758 759 759 754 755 758 756
771 766 767 767 766 763 762 762 762 755 762 759 758 759 761 762 763 766 769 767 766 764 760 756 756 755 752 751 753 753 751 752 771 780 768 756 759 759 761 764 760 757 760 761
776 773 771 771 769 768 765 764 763 760 762 777 775 761 758 762 764 766 769 766 765 764 761 758 762 771 761 759 754 750 749 749 761 761 762 753 757 760 759 760 767 761 759 762
780 778 776 773 771 768 768 767 766 765 772 780 779 771 772 767 764 769 768 766 765 764 764 766 770 775 767 766 762 765 762 760 765 762 766 757 757 759 760 763 775 763 762 763
783 782 781 777 772 771 770 771 769 768 775 784 782 780 778 774 771 768 770 771 769 766 766 769 770 769 769 770 762 763 767 772 764 764 764 777 758 761 759 766 765 764 764 765
786 785 783 780 777 775 773 773 772 771 774 785 785 784 784 784 783 783 772 773 770 774 772 770 770 773 772 768 768 766 772 766 769 764 763 757 757 760 763 763 763 763 764 766
785 786 785 783 781 779 776 776 775 774 779 786 786 785 786 785 785 784 781 776 778 774 778 775 774 773 773 773 767 760 761 764 772 766 754 756 757 758 761 763 763 765 767 768
783 786 786 785 784 783 781 778 777 777 777 779 787 785 785 785 784 783 783 783 780 779 777 776 775 775 775 772 772 771 765 767 763 761 753 756 756 756 760 763 765 767 770 771
784 783 785 786 786 785 783 783 781 780 783 784 786 786 786 786 785 784 783 782 780 779 779 781 780 779 779 775 779 774 760 758 765 761 752 754 760 761 761 763 766 768 770 773
785 787 784 785 786 787 786 784 784 783 782 784 788 785 784 785 785 784 783 782 781 781 781 781 783 783 786 784 773 743 743 745 750 753 755 759 761 762 762 763 767 769 772 773
786 788 787 784 785 787 789 792 789 785 783 784 788 787 785 785 784 783 783 782 782 782 782 783 781 784 785 779 771 739 741 745 751 754 757 760 761 763 764 766 769 771 773 774
785 785 787 788 786 785 788 788 787 785 785 785 794 790 787 784 783 784 783 783 782 782 782 784 783 784 784 775 743 740 742 745 750 753 755 757 760 763 766 767 770 771 772 773
786 790 787 789 788 786 785 785 786 785 789 792 791 791 791 786 784 783 784 784 787 783 783 780 782 777 773 740 735 737 741 744 746 753 756 758 761 763 766 768 769 770 771 772
787 791 790 787 787 787 785 784 786 786 785 786 789 785 790 789 788 786 786 784 787 794 781 781 781 763 736 730 730 732 737 742 747 756 761 760 761 763 765 766 768 769 770 771
785 787 788 789 786 786 786 790 790 786 788 783 785 786 791 789 791 789 788 791 791 796 788 786 772 753 728 722 728 732 736 741 747 749 750 754 756 760 762 765 767 768 769 769
785 784 786 787 791 790 793 794 789 788 785 788 790 789 787 789 787 788 791 794 798 794 784 787 774 741 729 730 731 734 737 741 746 749 752 755 757 759 762 765 766 767 768 767
783 784 787 790 796 798 790 791 789 787 780 783 787 792 790 791 789 790 793 799 796 789 797 775 743 731 733 735 736 737 739 742 747 751 753 756 759 761 763 764 765 766 766 766
782 788 791 786 793 786 771 769 767 774 778 781 779 784 786 787 792 787 797 787 789 805 802 759 736 727 729 734 738 739 742 744 749 753 753 757 759 761 763 764 765 765 765 764
784 785 782 773 766 772 775 774 774 773 770 775 783 787 785 791 792 787 791 798 810 787 763 743 735 729 728 733 736 738 741 745 748 752 754 757 760 761 763 764 764 764 763 762
780 778 774 768 770 774 777 777 775 774 773 775 777 784 791 790 789 795 795 791 776 746 743 737 734 733 733 733 735 737 739 743 746 749 753 755 759 761 763 763 762 762 761 760
769 765 761 761 764 761 766 767 767 768 776 777 776 784 777 785 790 787 773 767 742 734 736 735 732 733 733 734 735 738 740 744 746 748 751 753 756 759 761 762 761 760 759 757
Wind_Speed
32 29 30 28 28 12 19 7 5 12 13 2 1 2 3 4 3 3 4 6 11 4 4 5 2 2 4 2 5 2 1 3 2 0 2 3 4 5 3 3 5 4 5 3
28 26 26 24 23 16 9 4 4 7 2 1 2 5 7 8 4 8 4 4 5 2 4 3 6 3 2 3 2 4 5 3 2 1 2 2 4 9 8 2 3 7 3 4
27 25 23 20 18 12 5 4 3 1 2 0 4 6 6 4 4 8 5 3 2 3 2 5 5 3 1 1 2 5 3 4 5 3 2 4 6 10 11 5 4 4 5 12
26 25 22 16 14 8 5 3 3 2 2 1 2 1 8 10 5 3 4 3 4 4 5 7 5 4 5 3 3 3 3 3 5 5 4 4 6 7 10 10 7 6 11 11
25 24 17 13 10 7 5 3 3 4 2 3 1 2 8 10 6 8 8 7 12 12 11 9 5 1 5 4 2 3 3 1 3 3 6 7 6 10 8 8 8 7 10 7
27 21 13 12 9 6 3 1 1 1 2 2 6 6 8 7 2 5 9 6 9 8 8 6 3 5 4 3 4 4 3 2 3 1 4 4 3 5 6 4 6 4 4 3
25 12 8 11 16 11 3 2 3 2 4 3 3 8 9 10 11 5 8 10 5 1 8 9 0 4 6 7 7 6 1 3 2 2 2 3 2 3 2 4 3 4 6 5
21 9 12 13 20 11 3 3 4 2 4 6 7 7 6 6 7 4 5 5 4 6 5 2 2 2 2 4 4 6 5 2 2 2 1 4 3 2 3 4 3 4 4 4
11 14 13 14 16 14 4 7 7 3 3 2 3 2 3 3 4 3 1 3 3 3 2 1 3 3 3 3 1 2 3 2 1 3 1 2 1 3 2 3 1 3 3 4
6 7 15 16 15 11 4 6 9 3 4 2 4 2 3 3 3 3 1 2 2 2 3 3 3 1 1 2 4 4 3 2 1 2 1 1 4 3 0 1 4 2 3 4
7 4 13 23 20 11 8 7 11 6 3 2 4 4 3 3 2 0 1 2 2 2 2 2 1 2 1 2 1 3 2 2 1 2 1 4 4 2 0 2 1 3 1 3
4 4 6 15 24 22 6 6 9 12 6 3 3 3 3 2 2 2 1 1 2 3 2 1 1 2 1 1 2 0 2 2 1 1 2 0 4 3 2 2 2 1 2 4
3 3 4 10 18 22 13 6 10 3 3 2 2 1 1 3 3 2 1 2 4 2 1 2 1 2 2 2 3 2 4 3 2 4 1 4 5 3 4 2 1 3 4 5
6 3 7 12 13 15 16 8 9 3 3 2 0 1 0 4 4 3 3 3 4 3 1 1 1 1 1 2 2 2 3 5 4 4 6 4 3 2 5 5 4 3 5 4
4 4 3 6 8 9 11 10 13 8 2 1 1 1 1 3 3 2 4 7 3 1 2 1 2 1 1 2 2 4 6 6 4 5 1 3 4 3 2 5 5 3 4 4
3 4 4 4 4 7 6 2 7 13 5 1 0 1 2 1 2 3 3 3 1 1 0 1 1 1 1 2 3 5 6 3 3 5 4 4 6 4 2 3 5 5 4 5
6 3 3 2 0 3 3 1 7 12 5 1 2 2 1 1 2 1 1 1 0 0 0 2 1 2 2 3 4 4 6 7 6 6 6 2 4 3 5 7 8 6 5 3
11 8 5 3 3 6 1 4 5 6 3 2 1 3 1 1 2 2 0 1 1 1 1 0 2 1 2 5 8 5 6 7 7 7 4 4 7 7 6 7 5 4 3 2
13 8 5 2 2 2 2 4 6 4 1 1 2 3 3 2 0 0 1 1 1 1 2 2 2 3 6 8 8 9 7 7 7 8 6 6 6 7 6 5 4 2 2 1
13 7 2 1 3 3 0 1 2 1 1 0 2 1 0 2 0 2 1 1 2 2 3 2 3 5 10 7 5 6 9 7 11 7 4 4 4 6 6 5 3 3 1 2
5 4 1 3 2 2 2 1 1 1 2 2 0 1 3 1 2 2 0 2 1 1 3 1 3 4 4 7 9 7 8 9 7 4 4 7 6 7 6 5 4 2 1 2
5 4 3 1 2 1 2 2 1 3 3 1 0 1 1 1 1 1 1 1 2 5 1 0 4 4 2 4 6 7 8 9 8 9 7 9 9 9 7 4 2 1 2 5
5 2 2 3 2 2 7 6 3 2 3 4 3 1 1 1 0 2 1 1 4 2 1 4 5 2 3 4 5 6 7 12 9 8 12 11 9 6 4 2 1 2 5 6
2 3 3 5 3 5 4 3 4 3 2 3 3 3 3 1 1 2 3 2 2 3 3 6 3 6 7 6 5 5 7 9 7 6 10 9 7 4 2 1 2 4 6 9
2 3 5 6 3 1 1 2 1 2 3 4 3 2 2 1 1 2 2 2 4 6 5 3 3 4 7 7 6 7 7 7 7 8 8 8 6 3 1 2 3 6 7 8
1 4 2 1 2 1 1 2 2 2 3 2 2 3 3 4 3 2 7 5 7 4 3 3 1 4 5 6 6 6 8 9 10 11 10 8 6 4 2 4 5 4 7 10
4 4 3 2 0 3 3 4 4 9 3 3 3 6 8 1 2 4 5 5 4 1 3 2 2 5 6 6 6 7 10 10 12 11 10 9 6 2 1 2 4 8 11 11
Wind_Direction
358 360 9 18 25 59 58 47 76 123 126 107 70 294 205 167 67 42 43 19 60 57 69 50 111 122 228 293 266 298 72 289 17 15 158 248 274 317 339 63 339 19 90 59
357 360 4 13 24 48 81 69 63 36 355 95 253 248 107 45 55 26 35 65 28 330 116 103 130 135 331 327 338 1 347 352 319 160 291 315 10 6 360 14 14 13 108 134
353 354 360 8 20 47 64 106 103 9 283 170 243 135 100 113 31 56 58 77 215 180 101 118 131 127 24 322 19 288 299 33 52 97 166 272 9 15 19 50 50 76 56 125
348 349 357 10 21 33 53 23 89 166 169 198 197 204 82 68 72 88 359 63 27 4 97 94 96 143 197 162 197 248 38 69 29 64 79 46 35 31 24 31 20 77 157 146
343 341 359 9 13 40 53 118 147 200 79 325 187 13 63 77 46 2 63 62 55 48 45 52 53 7 4 27 12 24 359 90 31 39 20 76 66 21 30 22 6 71 90 102
340 343 11 17 30 53 84 310 227 264 212 227 94 60 49 51 2 27 31 351 85 59 16 17 60 86 95 79 15 22 39 121 31 339 352 338 359 8 16 65 35 348 69 22
349 345 46 51 44 49 59 344 305 164 93 69 80 83 63 47 42 86 18 3 96 348 305 302 68 74 81 51 31 15 56 103 102 265 338 39 200 59 348 323 27 52 72 44
4 47 81 58 39 32 52 358 333 54 118 120 100 93 98 108 80 71 56 24 20 324 304 287 244 220 256 73 40 7 11 313 53 79 63 158 155 87 15 33 85 53 103 82
39 80 65 37 15 14 41 27 358 305 135 357 335 354 159 139 92 57 53 224 278 304 273 292 354 44 302 334 314 196 307 263 91 352 3 328 61 120 60 336 29 23 19 117
43 54 31 15 7 21 78 35 14 320 98 36 319 17 14 325 325 75 200 334 307 158 317 29 10 73 310 333 343 342 338 355 26 358 325 120 126 139 107 45 221 85 4 113
38 64 50 44 37 33 53 33 39 27 78 46 348 6 346 326 310 181 57 332 265 297 353 29 1 332 64 314 97 351 316 355 218 43 343 294 133 161 315 183 130 113 107 97
83 97 43 27 33 34 42 37 38 49 71 90 58 74 47 23 16 339 6 253 28 14 317 7 3 260 152 32 269 353 312 179 239 195 232 40 184 109 122 58 70 118 18 96
171 232 313 342 359 13 32 38 12 60 109 124 191 82 346 359 312 254 349 70 351 50 114 319 351 298 43 258 250 36 201 130 226 20 172 198 205 129 130 130 83 78 60 43
160 261 281 306 334 2 17 45 24 18 323 130 100 17 288 336 322 265 255 303 279 255 290 328 302 291 44 287 245 229 193 139 214 252 257 134 234 166 156 160 107 104 75 62
196 192 283 316 335 352 2 38 44 45 78 119 136 182 227 3 340 248 227 240 292 331 335 338 260 288 356 228 11 247 178 195 168 231 67 119 134 87 343 155 167 170 139 136
258 245 229 293 320 346 348 203 26 24 27 117 279 132 176 13 350 3 32 347 351 313 76 221 144 143 171 289 247 251 173 132 67 173 98 91 111 95 15 127 106 91 88 88
222 232 226 191 167 29 65 332 316 348 355 17 345 285 184 294 280 210 250 276 266 354 236 238 210 200 173 250 235 217 155 144 122 123 122 134 186 175 124 107 99 107 98 102
205 190 168 76 97 117 110 324 342 349 351 32 147 278 331 166 202 216 200 241 197 260 245 359 209 107 213 255 232 158 147 131 145 162 102 103 115 115 113 122 135 150 155 150
187 189 155 305 259 204 199 288 305 296 143 214 144 182 256 311 13 135 329 4 290 171 229 222 126 222 226 229 209 176 172 177 174 137 143 145 147 148 151 154 150 159 176 78
151 149 247 206 243 278 59 51 12 15 220 113 209 352 129 60 336 311 46 126 270 276 237 105 217 253 249 236 207 164 162 154 130 124 161 164 155 167 171 181 150 152 208 300
159 196 217 298 172 269 17 340 98 322 292 170 181 121 146 238 119 215 336 264 312 280 267 192 267 270 248 185 155 145 137 136 153 118 146 164 167 174 154 151 174 191 249 264
182 153 127 95 302 39 100 238 263 175 223 38 101 206 38 97 42 81 306 239 20 248 172 60 272 259 154 120 128 132 136 137 132 136 126 121 120 131 131 141 156 188 267 290
123 83 74 96 281 270 182 191 245 222 162 162 156 109 159 19 252 80 90 234 235 16 305 233 229 177 147 141 126 125 124 127 130 127 130 133 126 128 138 155 222 273 293 307
125 152 249 169 204 249 206 192 148 172 116 147 146 127 160 163 116 156 138 232 23 310 271 241 257 197 159 145 147 131 142 137 138 141 141 136 137 134 164 224 263 295 303 315
198 140 227 206 203 29 4 66 70 218 159 132 109 59 123 237 177 221 78 46 259 219 240 241 278 180 141 147 156 154 152 152 148 148 139 138 148 147 191 254 288 302 311 316
199 237 256 206 70 197 229 186 206 194 142 65 63 125 113 235 170 123 219 170 222 244 223 254 159 157 149 153 158 154 147 152 152 160 160 154 163 176 218 286 303 305 320 319
217 246 249 187 256 193 184 162 189 160 146 201 144 155 203 102 142 237 197 220 234 244 280 267 217 186 173 156 143 146 145 147 150 146 147 139 147 161 288 315 313 322 331 330